Location: Bailleul
(50.3375°N, 2.8513°E)
Time: 04:12:43
(UTC+00:00)

In-Cosmos 22 Rocket - Pass Details

Date: 19 April 2021
Orbit: 791 x 887 km, 81.2° (Epoch: 09 May)

Event Time Altitude Azimuth Distance (km) Brightness Sun altitude
Rises 19:13:26 0° 346° (NNW) 3,499 8.0 -4.4°
Reaches altitude 10° 19:15:54 10° 346° (NNW) 2,561 7.3 -4.7°
Maximum altitude 19:21:45 82° 261° (W) 904 4.5 -5.6°
Drops below altitude 10° 19:27:33 10° 174° (S) 2,537 6.4 -6.4°
Sets 19:29:59 0° 173° (S) 3,464 7.1 -6.7°
